Žagarė

Lithuania     56˚21′45″N   23˚15′29″E
temp.,
°C
wind,
m/s
gust,
m/s
humid.,
%
clouds,
%
prec.,
mm/h
press.,
hPa
HPBL,
m
28 november, sat
sat2823:00+1˚nne4794100 0.9 1017532
02:00n369582 1.0 1018309
05:00−1˚n3109059 0.0 1020429
08:00+2˚n398478 0.0 1021664
11:00+2˚ne5878100 0.1 1021838
14:00+2˚nne588098 0.1 1022691
17:00+2˚ne589298 0.1 1022636
20:00+1˚ne499393 0.1 1023392
29 november, sun
sun2923:00+1˚ne498889 0.1 1024427
02:00ene489592 0.1 1024476
05:00−1˚ene389169 0.1 1024297
08:00−1˚ne479079 0.1 1025354
11:00ene468983 0.0 1025428
14:00ne358591 0.0 1024528
17:00n3586100 0.1 1023532
20:00nne3581100 0.1 1022638
30 november, mon
mon3023:00−1˚nne359494 0.1 1022334
02:00−1˚nne129492 0.3 1022199
05:00−2˚n119592 0.1 102093
08:00−2˚sse119587 0.1 102162
11:00−1˚ssw239059 0.1 1021289
14:00wsw348673 0.1 1021434
17:00−1˚ssw369395 0.0 1020285
20:00−1˚ssw369298 0.1 1020278
1 december, tue
tue123:00−1˚ssw4109562 0.0 1020289
02:00+1˚ssw589679 0.1 1020351
05:00ssw6109099 0.1 1020454
08:00ssw6108999 0.1 1022431
11:00+1˚ssw6108598 0.0 1023444
14:00+1˚ssw598474 0.0 1024537
17:00ssw488468 0.0 1025539
20:00s378584 0.0 1027370
2 december, wed
wed223:00−1˚s4891100 0.0 1027381
02:00−1˚s4789100 0.0 1028331
05:00−1˚sse3788100 0.0 1028309
08:00−2˚sse3785100 0.0 1029291
11:00−2˚sse4682100 0.0 1029325
14:00−1˚sse3678100 0.0 1028412
17:00−2˚se378623 0.0 1027307
20:00−3˚se488612 0.0 1027326